AirNav   Pilot Hours Calculator
 
 1030 users online  

7F7 Clifton Municipal Airport/Isenhower Field
Clifton, Texas, USA

GOING TO CLIFTON?


FAA INFORMATION EFFECTIVE 07 NOVEMBER 2019

Location

FAA Identifier: 7F7
Lat/Long: 31-49-01.6800N 097-34-10.4500W
31-49.028000N 097-34.174167W
31.8171333,-97.5695694
(estimated)
Elevation: 760 ft. / 232 m (estimated)
Variation: 07E (1985)
From city: 2 miles N of CLIFTON, TX
Time zone: UTC -6 (UTC -5 during Daylight Saving Time)
Zip code: 76634

Airport Operations

Airport use: Open to the public
Activation date: 05/1966
Control tower: no
ARTCC: FORT WORTH CENTER
FSS: FORT WORTH FLIGHT SERVICE STATION
NOTAMs facility: FTW (NOTAM-D service available)
Attendance: MON-FRI 0800-1630
FOR ARPT ATTENDANT ON SAT & SUN CALL 254-978-0020 OR 254-253-0859; AFT HR FEE.
Wind indicator: lighted
Segmented circle: no
Lights: DUSK-DAWN. MIRL RY 14/32 PRESET LOW INTST; TO INCR INTST ACTVT - CTAF.
Beacon: white-green (lighted land airport)
Operates sunset to sunrise.

Airport Communications

CTAF/UNICOM: 122.8

Nearby radio navigation aids

VOR radial/distance  VOR name  Freq  Var
ACTr292/17.9WACO VORTAC115.3009E
JENr137/25.8GLEN ROSE VORTAC115.0006E

 
NDB name  Hdg/Dist  Freq  Var  ID
ROBINSON303/31.740003EROB .-. --- -...

Airport Services

Fuel available: 100LL
Parking: hangars and tiedowns
Airframe service: MAJOR
Powerplant service: MAJOR
Bottled oxygen: HIGH

Runway Information

Runway 14/32

Dimensions: 3000 x 50 ft. / 914 x 15 m
Surface: asphalt, in fair condition
Weight bearing capacity: 
Single wheel: 13.0
Runway edge lights: medium intensity
Gradient: NW.
RUNWAY 14  RUNWAY 32
Latitude: 31-49.238333N31-48.817500N
Longitude: 097-34.326667W097-34.021667W
Elevation: 756.0 ft.748.0 ft.
Traffic pattern: leftleft
Runway heading: 142 magnetic, 149 true322 magnetic, 329 true
Displaced threshold: no150 ft.
Markings: basic, in good conditionbasic, in good condition
Visual slope indicator: 2-light PAPI on left (3.00 degrees glide path)2-light PAPI on right (3.00 degrees glide path)
Obstructions: 160 ft. hill, 5500 ft. from runway, 33:1 slope to clear30 ft. trees, 201 ft. from runway, 56 ft. left of centerline
8 FT FENCE 190 FT FM THLD ON EXTNDD CNTRLN.

Airport Ownership and Management from official FAA records

Ownership: Publicly-owned
Owner: CITY OF CLIFTON
PO BOX 231
CLIFTON, TX 76634
Phone 254-675-8337
Manager: TIM TALLEY
PO BOX 249
CLIFTON, TX 76634
Phone 254-675-3771

Airport Operational Statistics

Aircraft based on the field: 11
Single engine airplanes: 11
    
Aircraft operations: avg 123/week *
75% local general aviation
25% transient general aviation
* for 12-month period ending 31 December 2018

Additional Remarks

STEEP DROP OFF NORTH OF RWY 14.
GRVL ON NE END OF TWY.
RY 14 HAS WATER PONDING AT END OF RY AFT HVY RAIN.
SECURITY GATE LOCKED AFTER HRS. FOR ACCESS CONTACT 254-675-6620.
FOR CD CTC FORT WORTH ARTCC AT 817-858-7584.

Instrument Procedures

There are no published instrument procedures at 7F7.

Some nearby airports with instrument procedures:

KACT - Waco Regional Airport (21 nm SE)
KPWG - Mc Gregor Executive Airport (24 nm SE)
KCNW - TSTC Waco Airport (27 nm SE)
KINJ - Hillsboro Municipal Airport (29 nm NE)
KMNZ - Hamilton Municipal Airport (31 nm W)
 
Loc | Ops | Rwys | IFR | FBO | Links
Com | Nav | Svcs | Stats | Notes
Area around 7F7 (Clifton Municipal Airport/Isenhower Field)
 
Road maps at: MapQuest Bing Google
 
Aerial photo
WARNING: Photo may not be current or correct
Aerial photo of 7F7 (Clifton Municipal Airport/Isenhower Field)
Photo by Bill Gunn, Texas DOT Aviation Division
Photo taken 27-Oct-2005

Do you have a better or more recent aerial photo of Clifton Municipal Airport/Isenhower Field that you would like to share? If so, please send us your photo.

 
Sectional chart

 
Airport distance calculator
Flying to Clifton Municipal Airport/Isenhower Field? Find the distance to fly.

From to 7F7

Sunrise and sunset
Times for 19-Nov-2019
 Local
(UTC-6)
 Zulu
(UTC)
Morning civil twilight06:3712:37
Sunrise07:0313:03
Sunset17:2823:28
Evening civil twilight17:5423:54

Current date and time
Zulu (UTC)  20-Nov-2019 00:27:07
Local (UTC-6)  19-Nov-2019 18:27:07
 
METAR
KACT 
21nm SE 
192351Z 16008KT 10SM CLR 20/09 A2991 RMK AO2 SLP126 T02000089 10272 20200 55001 $
KPWG 
25nm SE 
192356Z AUTO 16008KT 10SM CLR 21/08 A2992 RMK AO2 SLP130 T02110083 10272 20211 53001 $
KGOP 
26nm SW 
200015Z AUTO 12003KT 10SM CLR 19/08 A2993 RMK AO2
KCNW 
28nm SE 
192355Z 13005KT 10SM SKC 18/09 A2991
KINJ 
29nm NE 
200015Z AUTO 12008KT 10SM CLR 20/09 A2991 RMK AO2 T02010088
KMNZ 
31nm W 
200015Z AUTO 15008KT 10SM CLR 19/08 A2991 RMK AO2 T01930075
KCPT 
33nm N 
200015Z AUTO 15010KT 10SM CLR 20/07 A2992 RMK AO2
KSEP 
39nm NW 
200015Z AUTO 15005KT 10SM CLR 20/06 A2991 RMK AO2 T01970055
KGDJ 
40nm N 
AWOS-3 118.925 817-573-7514
200015Z AUTO 14007KT 10SM CLR 22/07 A2989 RMK AO2 T02190070
KHLR 
42nm S 
192358Z AUTO 15006KT 8SM CLR 20/10 A2992 RMK AO2 SLP128 T02000099 10271 20200 55000
TAF
KACT 
21nm SE 
192030Z 1921/2018 16009KT P6SM FEW250 FM200900 17010KT P6SM OVC020 FM201300 16011KT P6SM OVC017
NOTAMs
Click for the latest NOTAMs
NOTAMs are issued by the DoD/FAA and will open in a separate window not controlled by AirNav.

 

 
 

FBO, Fuel Providers, and Aircraft Ground Support

  
 Business Name 
 
 Contact 
 
 Services / Description 
 
Fuel Prices
 
Comments
  
Clifton Aero 254-675-3771
no information available

If you are affiliated with Clifton Aero and would like to show here your services, contact info, web link, logo, and more, click here
100LL
SS $4.22 
 Updated 07-Nov-2019
 
   2 read write
SS=Self service
Update Fuel Prices
 

Would you like to see your business listed on this page?

 If your business provides an interesting product or service to pilots, flight crews, aircraft, or users of the Clifton Municipal Airport/Isenhower Field, you should consider listing it here.  To start the listing process, click on the button below
 
Add a business
 

Other Pages about Clifton Municipal Airport/Isenhower Field

Update a link
 
Copyright © AirNav, LLC. All rights reserved. Privacy Policy  Contact